Location: Unspecified
(37.6100°N, 2.7800°W)
Time: 02:34:40
(UTC+00:00)

N. Korean satellite - Visible Passes

Search period start: 14 December 2018 00:00
Search period end: 24 December 2018 00:00
Orbit: 456 x 511 km, 97.2° (Epoch: 13 December)

Date Brightness Start Highest point End Pass type
(mag) Time Alt. Az. Time Alt. Az. Time Alt. Az.
14 Dec 7.9 06:07:12 10° NNE 06:10:39 43° E 06:14:07 10° S visible
14 Dec 8.5 18:14:41 10° SSW 18:17:46 31° W 18:20:51 10° NNW visible
15 Dec 9.4 05:43:14 10° NE 05:46:00 21° E 05:48:47 10° SE visible
15 Dec 6.7 17:49:44 10° S 17:53:09 74° W 17:56:35 10° NNW visible
16 Dec 7.0 06:51:29 10° N 06:54:53 41° WNW 06:58:20 10° SW visible
16 Dec 6.7 17:25:20 10° SSE 17:28:36 46° ENE 17:31:55 10° N visible
17 Dec 6.6 06:26:45 10° NNE 06:30:22 86° ESE 06:34:01 10° S visible
17 Dec 9.6 18:35:14 10° SW 18:37:32 17° W 18:39:52 10° NW visible
18 Dec 8.2 06:02:22 10° NNE 06:05:47 38° E 06:09:12 10° SSE visible
18 Dec 8.2 18:09:40 10° SSW 18:12:51 36° W 18:16:03 10° NNW visible
19 Dec 9.6 05:38:31 10° NE 05:41:06 18° E 05:43:43 10° SE visible
19 Dec 6.4 17:44:49 10° SSE 17:48:14 87° WSW 17:51:42 10° NNW visible
20 Dec 6.8 06:46:30 10° N 06:50:01 49° WNW 06:53:34 10° SSW visible
20 Dec 6.9 17:20:30 10° SE 17:23:42 39° ENE 17:26:57 10° N visible
21 Dec 6.8 06:21:50 10° NNE 06:25:29 74° E 06:29:09 10° S visible
21 Dec 9.4 18:30:02 10° SW 18:32:35 19° W 18:35:09 10° NW visible
22 Dec 8.5 05:57:31 10° NNE 06:00:52 33° E 06:04:14 10° SSE visible
22 Dec 7.8 18:04:37 10° S 18:07:53 42° W 18:11:12 10° NNW visible
23 Dec 9.8 05:33:47 10° NE 05:36:10 16° E 05:38:33 10° SE visible
23 Dec 6.4 17:39:52 10° SSE 17:43:17 80° ENE 17:46:45 10° N visible
